User: anonymous   Login
Location: Saint-Usage
(47.1052°N, 5.2587°E)
Time: 13:58:52
(UTC+01:00)
Language:

BUGSAT 1 - Orbit

View from above orbital plane
View from above orbital plane
View from above satellite
View from above satellite

Ground track
Ground track

The orbit data is extracted from the following two-line orbital elements,

1 40014U 14033E   21339.93652017  .00001428  00000-0  13203-3 0  9998
2 40014  98.1282 325.7276 0030496 320.4123  39.4869 14.95975192407204
Epoch (UTC): 05 December 2021 22:28:35
Eccentricity: 0.0030496
inclination: 98.1282°
perigee height: 558 km
apogee height: 600 km
right ascension of ascending node: 325.7276°
argument of perigee: 320.4123°
revolutions per day: 14.95975192
mean anomaly at epoch: 39.4869°
orbit number at epoch: 40720

The dashed part of the orbit path shows where the satellite is in the earth's shadow,  

DLR